Hourly Data Report for November 19, 2003

SHERBROOKE A
QUEBEC

45°26'00.000" N
71°41'00.000" W
241.40 m
7028124
71610
YSC

Download Data

Hourly Data (November 2003)
Hourly Data Report for November 19, 2003
TIME
LST
Temp Definition
°C
Dew Point Definition
°C
Rel Hum Definition
%
Precip. Amount Definition
mm

Wind Dir Definition
10's deg

Wind Spd Definition
km/h
Visibility Definition
km
Stn Press Definition
kPa
Hmdx Definition


Wind Chill Definition


Weather Definition


00:00 4.7 0.9 76   13 15 15.0 99.02      
01:00 5.8 1.6 74   16 22 15.0 98.92      
02:00 6.3 2.1 74   16 11 15.0 98.87      
03:00 6.7 2.3 73   16 13 15.0 98.78      
04:00 7.0 2.3 72   17 20 15.0 98.69      
05:00 6.7 2.3 73   15 13 15.0 98.59      
06:00 7.1 3.3 77   14 11 15.0 98.50     Rain
07:00 7.3 3.6 77   15 13 15.0 98.47     Rain
08:00 7.9 3.4 73   16 17 24.1 98.37     Cloudy
09:00 8.7 3.7 71   17 11 24.1 98.34     Cloudy
10:00 9.4 4.6 72   16 20 24.1 98.29     Cloudy
11:00 9.6 5.6 76   16 17 24.1 98.17     Cloudy
12:00 9.1 6.8 86   17 4 12.9 98.11     Rain
13:00 8.8 6.8 87   15 11 24.1 98.00     Cloudy
14:00 8.4 6.4 87   11 9 24.1 97.81     Cloudy
15:00 8.9 6.6 85   13 9 19.3 97.70     Rain
16:00 8.4 6.9 90   15 11 16.1 97.62     Rain
17:00 8.5 7.2 92   13 15 19.3 97.48     Rain
18:00 10.4 8.1 86   14 22 15.0 97.33      
19:00 12.1 8.9 81   13 35 15.0 97.14      
20:00 12.8 8.8 77   16 28 15.0 97.05      
21:00 13.2 9.1 76   15 32 15.0 97.02      
22:00 13.8 9.4 75   14 22 15.0 96.93      
23:00 14.5 10.0 74   15 26 15.0 96.78      

Notes on Data Quality.

Legend

  • E = Estimated
  • M = Missing
  • NA = Not Available*
  • [empty] = Indicates an unobserved value
Date modified: